Regional Weather Roundup
Issued by NWS Sioux Falls, SD

Home | Current Version | Previous Version | Text Only | Print | Product List | Glossary Off
Versions: 1 2 3 4 5 6 7 8 9 10 11 12 13 14 15 16 17 18 19 20 21 22 23 24 25 26 27 28 29 30 31 32 33 34 35 36 37 38 39 40 41 42 43 44 45 46 47 48 49 50

000
ASUS43 KFSD 010302
RWRFSD

WEATHER ROUNDUP FOR SE SOUTH DAKOTA/SW MINNESOTA/NW IOWA
NATIONAL WEATHER SERVICE SIOUX FALLS SD
900 PM CST SAT FEB 28 2015

NOTE: "FAIR" INDICATES FEW OR NO CLOUDS BELOW 12,000 FEET WITH NO
SIGNIFICANT WEATHER AND OR OBSTRUCTIONS TO VISIBILITY.


SDZ038>040-050-052>070-010400-
SOUTHEAST SOUTH DAKOTA

CITY           SKY/WX    TMP DP  RH WIND       PRES   REMARKS
CHAMBERLAIN    NOT AVBL
HURON          CLEAR     13  10  88 NW10      30.21R WCI   0
MADISON        CLOUDY    16  10  79 S8        30.16S WCI   5
MITCHELL       CLEAR     20  13  74 NW8       30.22R WCI  10
SIOUX FALLS    MOCLDY    20  12  71 S15       30.21S WCI   6
WINNER         FAIR      19  -2  39 NW7       30.21R WCI  10
YANKTON        CLEAR     21  10  63 S15       30.25R WCI   8
$$

MNZ071-072-080-081-089-090-097-098-010400-
SOUTHWEST MINNESOTA

CITY           SKY/WX    TMP DP  RH WIND       PRES   REMARKS
FAIRMONT       CLEAR     16   9  73 SE13      30.30S WCI   2
JACKSON        CLEAR     18  10  73 S14       30.27F WCI   4
LUVERNE        CLEAR     18  12  79 S12       30.24S WCI   5
MARSHALL       CLEAR     18  10  73 S14       30.22F WCI   4
MONTEVIDEO     CLOUDY    18  12  79 S13       30.22F WCI   4
PIPESTONE      CLEAR     16  10  79 S16       30.18F WCI   0
REDWOOD FALLS  CLEAR     15  10  80 S14       30.26F WCI   0
TRACY          CLEAR     17  12  80 S15G22    30.22F WCI   2
WINDOM         CLEAR     16  10  79 S14       30.25S WCI   1
WORTHINGTON    CLEAR     27   9  46 S16       30.26S WCI  14
$$

IAZ001>003-012>014-020>022-031-032-NEZ013-014-SDZ071-010400-
NORTHWEST IOWA

CITY           SKY/WX    TMP DP  RH WIND       PRES   REMARKS
DENISON        CLOUDY    19  18  93 S9        30.32S WCI   9
ESTHERVILLE    CLEAR     14   9  80 S15       30.30S WCI  -1
SIOUX CITY     CLEAR     21  14  74 S9        30.31F WCI  11
SPENCER        FAIR      16  10  77 S13       30.29F WCI   2
$$

ABBREVIATIONS USED IN REMARKS
   TC - TEMPERATURE IN CELSIUS
  WCI - WIND CHILL INDEX
   HX - HEAT INDEX
  VSB - VISIBILITY



USA.gov is the U.S. government's official web portal to all federal, state and local government web resources and services.